Weather History for Paris, IL

Change the Weather History Date:

Sunday, March 31, 2013

  Actual Average (KHUF) Record (KHUF)
Temperature  
Mean Temperature 52 °F 48 °F  
Max Temperature 62 °F 59 °F 83 °F (1986)
Min Temperature 42 °F 37 °F 16 °F (1969)
Degree Days  
Heating Degree Days 13 17  
Month to date heating degree days 691  
Since 1 July heating degree days 4854  
Cooling Degree Days 0 0  
Month to date cooling degree days 1  
Year to date cooling degree days 1  
Growing Degree Days 2 (Base 50)    
Moisture  
Dew Point 43 °F    
Average Humidity 77    
Maximum Humidity 96    
Minimum Humidity 46    
Precipitation  
Precipitation 0.01 in 0.12 in 1.28 in (1985)
Month to date precipitation 3.37  
Year to date precipitation 7.66  
Sea Level Pressure  
Sea Level Pressure 29.85 in    
Wind  
Wind Speed 9 mph (West)    
Max Wind Speed 17 mph    
Max Gust Speed 28 mph    
Visibility 9 miles    
Events Rain    
T = Trace of Precipitation, MM = Missing Value Source: NWS Daily Summary

Daily Weather History Graph

Daily Weather History Graph

Search for Another Location

Airport:

Trip Planner

Search our weather history database for the weather conditions in past years. The results will help you decide how hot, cold, wet, or windy it might be!

Date:

Astronomy

Mar. 31, 2013 Rise Set
Actual Time 6:36 AM CDT 7:14 PM CDT
Civil Twilight 6:08 AM CDT 7:41 PM CDT
Nautical Twilight 5:36 AM CDT 8:13 PM CDT
Astronomical Twilight 5:03 AM CDT 8:46 PM CDT
Moon No Moon Rise 9:24 AM CDT (3/31)
Length of Visible Light 13h 32m
Length of Day
12h 38m
Waning Gibbous, 77% of the Moon is Illuminated
Mar 31
Waning Gibbous
Apr 2
Last Quarter
Apr 10
New
Apr 18
First Quarter
Apr 25
Full

Hourly Weather History & Observations

Time (CDT) Temp. Windchill Dew Point Humidity Pressure Visibility Wind Dir Wind Speed Gust Speed Precip Events Conditions
12:15 AM 45.9 °F 42.3 °F 41.7 °F 85% 29.91 in 10.0 mi SSW 6.9 mph - N/A   Overcast
12:35 AM 46.8 °F - 42.4 °F 85% 29.90 in 10.0 mi SW 6.9 mph - N/A   Overcast
12:55 AM 46.9 °F - 43.2 °F 87% 29.90 in 10.0 mi SW 8.1 mph - N/A   Overcast
1:15 AM 46.8 °F - 43.7 °F 89% 29.90 in 10.0 mi WSW 6.9 mph - N/A   Overcast
1:35 AM 46.6 °F - 44.1 °F 91% 29.89 in 10.0 mi West 6.9 mph - N/A   Overcast
1:55 AM 45.5 °F 44.2 °F 43.3 °F 92% 29.89 in 7.0 mi WSW 3.5 mph - N/A   Overcast
2:15 AM 45.5 °F 43.2 °F 43.7 °F 93% 29.88 in 7.0 mi WSW 4.6 mph - N/A   Overcast
2:35 AM 45.5 °F 43.2 °F 43.5 °F 93% 29.87 in 10.0 mi WSW 4.6 mph - N/A   Overcast
2:55 AM 45.1 °F 42.8 °F 42.8 °F 91% 29.86 in 10.0 mi SW 4.6 mph - N/A   Overcast
3:15 AM 44.6 °F 42.2 °F 42.6 °F 93% 29.85 in 7.0 mi SW 4.6 mph - N/A   Overcast
3:35 AM 44.8 °F 43.3 °F 43.0 °F 93% 29.85 in 7.0 mi SW 3.5 mph - N/A   Overcast
3:55 AM 44.6 °F 41.4 °F 42.8 °F 93% 29.85 in 10.0 mi SW 5.8 mph - N/A   Overcast
4:15 AM 44.8 °F 41.0 °F 42.8 °F 93% 29.85 in 10.0 mi SW 6.9 mph - N/A   Overcast
4:35 AM 45.0 °F 41.8 °F 42.6 °F 91% 29.85 in 7.0 mi WSW 5.8 mph - N/A   Overcast
4:55 AM 44.8 °F 43.3 °F 42.4 °F 91% 29.84 in 10.0 mi SW 3.5 mph - N/A   Overcast
5:15 AM 44.8 °F 42.4 °F 42.4 °F 91% 29.84 in 10.0 mi WSW 4.6 mph - N/A   Overcast
5:35 AM 45.0 °F 41.8 °F 42.4 °F 91% 29.85 in 10.0 mi WSW 5.8 mph - N/A   Overcast
5:55 AM 45.1 °F 40.8 °F 42.8 °F 91% 29.84 in 7.0 mi WSW 8.1 mph - N/A   Overcast
6:15 AM 44.8 °F 40.4 °F 42.8 °F 93% 29.85 in 2.0 mi West 8.1 mph - N/A   Overcast
6:35 AM 44.8 °F 41.0 °F 43.3 °F 95% 29.85 in 2.5 mi West 6.9 mph - N/A   Overcast
6:55 AM 45.0 °F 40.6 °F 43.7 °F 95% 29.85 in 2.5 mi West 8.1 mph - N/A   Overcast
7:15 AM 45.1 °F 41.4 °F 43.9 °F 95% 29.85 in 2.5 mi West 6.9 mph - N/A   Overcast
7:35 AM 45.5 °F 41.8 °F 44.4 °F 96% 29.85 in 3.0 mi West 6.9 mph - N/A   Overcast
7:55 AM 46.0 °F 41.4 °F 44.6 °F 95% 29.86 in 4.0 mi West 9.2 mph - N/A   Overcast
8:15 AM 46.2 °F 41.7 °F 44.6 °F 94% 29.87 in 3.0 mi West 9.2 mph - N/A   Overcast
8:35 AM 46.4 °F 42.4 °F 44.6 °F 93% 29.86 in 3.0 mi West 8.1 mph - N/A   Overcast
8:55 AM 46.6 °F - 44.6 °F 93% 29.87 in 4.0 mi West 8.1 mph - N/A   Overcast
9:15 AM 47.1 °F - 44.4 °F 90% 29.87 in 5.0 mi West 9.2 mph - N/A   Overcast
9:35 AM 47.7 °F - 44.6 °F 89% 29.87 in 5.0 mi West 10.4 mph - N/A   Mostly Cloudy
9:55 AM 48.2 °F - 44.6 °F 87% 29.87 in 5.0 mi West 10.4 mph - N/A   Scattered Clouds
10:15 AM 50.4 °F - 45.5 °F 83% 29.86 in 10.0 mi West 10.4 mph 16.1 mph N/A   Clear
10:35 AM 52.5 °F - 45.3 °F 76% 29.87 in 10.0 mi NW 10.4 mph - N/A   Scattered Clouds
10:55 AM 53.2 °F - 44.8 °F 73% 29.87 in 10.0 mi NW 12.7 mph 20.7 mph N/A   Mostly Cloudy
11:15 AM 54.0 °F - 44.6 °F 71% 29.87 in 10.0 mi West 12.7 mph 20.7 mph N/A   Mostly Cloudy
11:35 AM 54.7 °F - 43.9 °F 67% 29.87 in 10.0 mi WNW 15.0 mph - N/A   Mostly Cloudy
11:55 AM 56.5 °F - 44.6 °F 64% 29.86 in 10.0 mi West 10.4 mph - N/A   Mostly Cloudy
12:15 PM 55.8 °F - 43.7 °F 64% 29.85 in 10.0 mi West 9.2 mph - N/A   Scattered Clouds
12:35 PM 56.5 °F - 43.2 °F 61% 29.84 in 10.0 mi West 11.5 mph 17.3 mph N/A   Scattered Clouds
12:55 PM 57.6 °F - 43.0 °F 58% 29.83 in 10.0 mi West 11.5 mph 17.3 mph N/A   Scattered Clouds
1:15 PM 58.1 °F - 43.5 °F 58% 29.83 in 10.0 mi West 12.7 mph - N/A   Scattered Clouds
1:35 PM 58.8 °F - 43.5 °F 57% 29.82 in 10.0 mi West 12.7 mph 17.3 mph N/A   Scattered Clouds
1:55 PM 60.6 °F - 43.2 °F 53% 29.82 in 10.0 mi West 15.0 mph 18.4 mph N/A   Scattered Clouds
2:15 PM 60.4 °F - 41.5 °F 50% 29.82 in 10.0 mi West 12.7 mph 18.4 mph N/A   Scattered Clouds
2:35 PM 60.6 °F - 42.3 °F 51% 29.82 in 10.0 mi West 15.0 mph 21.9 mph N/A   Scattered Clouds
2:55 PM 62.2 °F - 42.6 °F 49% 29.82 in 10.0 mi West 17.3 mph 23.0 mph N/A   Scattered Clouds
3:15 PM 61.9 °F - 43.2 °F 50% 29.81 in 10.0 mi West 17.3 mph 24.2 mph N/A   Scattered Clouds
3:35 PM 62.2 °F - 41.4 °F 46% 29.81 in 10.0 mi West 16.1 mph 20.7 mph N/A   Scattered Clouds
3:55 PM 60.8 °F - 42.3 °F 50% 29.81 in 10.0 mi West 16.1 mph 19.6 mph N/A   Mostly Cloudy
4:15 PM 60.3 °F - 43.2 °F 53% 29.81 in 10.0 mi WSW 12.7 mph - N/A   Mostly Cloudy
4:35 PM 59.0 °F - 43.5 °F 56% 29.80 in 10.0 mi West 13.8 mph - N/A   Mostly Cloudy
4:55 PM 58.8 °F - 43.9 °F 58% 29.80 in 10.0 mi WSW 13.8 mph 23.0 mph N/A   Mostly Cloudy
5:15 PM 55.2 °F - 45.5 °F 70% 29.82 in 10.0 mi West 16.1 mph 27.6 mph 0.01 in Rain Light Rain
5:35 PM 56.5 °F - 46.6 °F 69% 29.81 in 10.0 mi WSW 13.8 mph 19.6 mph 0.01 in   Overcast
5:55 PM 56.3 °F - 45.3 °F 67% 29.81 in 10.0 mi WSW 12.7 mph - 0.01 in   Overcast
6:15 PM 56.3 °F - 45.0 °F 66% 29.82 in 10.0 mi West 12.7 mph - N/A   Overcast
6:35 PM 53.6 °F - 46.0 °F 76% 29.83 in 10.0 mi NW 15.0 mph 25.3 mph N/A Rain Light Rain
6:55 PM 50.9 °F - 44.6 °F 79% 29.83 in 10.0 mi West 6.9 mph - N/A   Scattered Clouds
7:15 PM 50.9 °F - 44.4 °F 78% 29.83 in 10.0 mi West 6.9 mph - N/A   Clear
7:35 PM 49.8 °F - 43.5 °F 79% 29.83 in 10.0 mi West 4.6 mph - N/A   Clear
7:55 PM 50.0 °F - 44.6 °F 82% 29.83 in 10.0 mi WSW 9.2 mph - N/A   Clear
8:15 PM 49.8 °F - 43.7 °F 79% 29.84 in 10.0 mi West 8.1 mph - N/A   Clear
8:35 PM 48.4 °F - 43.3 °F 83% 29.85 in 10.0 mi West 9.2 mph - N/A   Clear
8:55 PM 49.8 °F - 43.3 °F 78% 29.86 in 10.0 mi West 10.4 mph - N/A   Mostly Cloudy
9:15 PM 49.3 °F - 41.2 °F 74% 29.87 in 10.0 mi WNW 11.5 mph - N/A   Mostly Cloudy
9:35 PM 48.2 °F - 40.5 °F 75% 29.87 in 10.0 mi WNW 9.2 mph - N/A   Mostly Cloudy
9:55 PM 48.2 °F - 39.2 °F 71% 29.87 in 10.0 mi WNW 10.4 mph - N/A   Overcast
10:15 PM 46.4 °F 41.5 °F 37.4 °F 71% 29.88 in 10.0 mi WNW 10.4 mph - N/A   Scattered Clouds
10:35 PM 45.5 °F 40.3 °F 37.4 °F 73% 29.88 in 10.0 mi NW 10.4 mph - N/A   Clear
10:55 PM 45.5 °F 38.6 °F 34.9 °F 66% 29.90 in 10.0 mi NW 16.1 mph 24.2 mph N/A   Clear
11:15 PM 43.9 °F 37.5 °F 34.7 °F 70% 29.90 in 10.0 mi NNW 12.7 mph - N/A   Clear
11:35 PM 42.3 °F 37.3 °F 33.8 °F 72% 29.91 in 10.0 mi NNW 8.1 mph - N/A   Clear
11:55 PM 42.8 °F 38.0 °F 33.8 °F 70% 29.91 in 10.0 mi NNW 8.1 mph - N/A   Scattered Clouds